Temp
28 28 28 28 28 27 28 28 28 29 30 32 33 37 35 36 36 37 38 38 38 38 36 37 38 39 40 40 44 45 52 54 55 53 54 53 49 48 47 47 48 50 52
26 27 25 25 25 25 26 27 27 28 28 30 32 35 35 35 35 36 36 36 36 36 38 36 36 37 37 38 40 41 45 50 54 50 50 44 47 47 47 46 48 48 49
22 24 24 21 22 22 23 25 26 27 26 29 30 32 35 33 30 30 32 33 34 33 34 36 36 36 36 34 37 40 42 40 49 47 49 47 42 44 46 46 46 47 47
22 23 22 21 21 21 22 25 25 25 26 27 27 26 25 25 26 28 30 31 32 30 31 32 34 35 36 35 36 40 41 42 40 44 48 48 50 46 45 46 48 47 47
20 20 21 22 21 21 21 21 23 23 24 24 25 24 24 25 26 26 27 28 29 29 28 29 31 31 33 33 35 37 39 39 40 40 41 43 46 48 45 45 47 49 47
19 19 21 22 20 20 19 19 20 20 20 21 21 21 20 22 21 22 22 24 25 26 25 26 26 28 29 30 32 36 37 37 38 39 40 39 39 39 40 40 43 46 50
16 16 15 16 18 17 17 20 18 17 18 18 17 17 18 18 17 17 18 18 19 21 20 22 22 23 24 26 27 32 35 35 35 36 36 38 39 40 40 39 39 40 43
17 16 15 15 16 17 16 15 16 15 16 15 17 16 17 17 17 16 17 17 17 20 19 20 21 22 23 24 24 26 29 31 32 33 34 35 36 36 37 36 36 35 38
15 14 14 14 13 14 14 14 14 14 15 14 15 14 14 14 14 15 15 16 16 21 17 18 18 19 20 21 21 22 25 26 29 28 29 31 33 34 35 35 35 34 33
14 13 13 12 13 12 13 13 13 12 13 13 12 13 12 13 13 14 12 13 14 15 15 15 16 17 18 18 18 20 24 22 25 28 26 26 27 28 30 32 33 33 33
12 11 11 12 12 11 11 10 10 10 10 10 10 9 10 10 10 10 10 10 12 12 12 13 14 14 15 16 15 16 21 20 21 23 23 24 25 24 25 26 27 28 31
12 11 11 10 10 9 9 8 9 8 8 8 8 8 9 9 7 6 7 8 6 8 10 11 12 12 13 14 14 15 17 19 19 21 22 21 25 23 23 23 23 24 29
12 10 10 8 8 7 7 7 7 6 6 6 5 6 6 5 3 4 6 7 6 6 7 9 8 9 11 11 13 16 18 19 19 20 20 20 21 21 21 22 23 25 29
12 9 7 5 4 4 3 3 2 2 1 2 1 1 -0 -1 -1 1 2 4 2 2 3 3 4 6 7 11 15 19 18 17 18 21 20 20 20 19 21 24 23 26 23
8 7 4 1 -2 -1 -2 -3 -2 -3 -7 -3 -8 -6 -8 -10 -11 -8 -6 -6 -5 -3 -5 -2 0 -1 2 13 15 14 11 9 10 14 18 20 23 27 27 26 24 23 22
8 7 6 2 2 -1 1 4 0 -5 -9 -11 -9 -9 -9 -9 -7 -8 -7 -8 -5 -5 -9 -3 -4 -3 7 19 25 25 10 10 8 8 11 12 20 21 27 27 29 28 24
8 5 4 3 1 -2 2 -3 -4 -8 -9 -10 -3 -2 -2 -2 -0 -1 -3 0 -1 -6 -3 -2 -5 -2 -4 19 24 26 17 10 3 5 9 12 20 21 16 21 27 27 29
5 4 0 -2 -4 -8 -11 -10 -11 -10 -8 -4 -2 0 2 3 4 3 4 1 -0 0 2 2 3 3 7 20 22 24 15 10 9 9 8 8 11 14 20 19 17 19 20
-2 -3 -6 -8 -11 -11 -7 -12 -10 -10 -10 -3 -0 2 3 4 4 5 5 5 4 5 5 9 7 4 6 18 21 21 16 16 14 16 14 12 14 22 28 21 16 17 19
-10 -7 -8 -11 -15 -6 -10 -11 -5 -6 -2 2 4 6 6 6 5 6 6 7 4 9 10 11 9 11 10 15 19 20 19 15 18 18 20 24 24 27 28 23 17 16 20
-5 -5 -8 -6 -3 -2 -5 -1 0 1 6 8 9 9 9 8 7 7 7 7 6 8 5 7 7 5 7 8 19 21 20 19 18 19 20 22 25 27 28 29 21 22 24
0 -0 -2 0 1 1 2 2 3 8 9 8 9 8 8 9 13 11 10 9 6 4 4 3 4 7 8 14 17 20 23 24 21 18 20 20 25 27 27 26 27 28 25
3 4 2 3 5 5 4 4 7 8 7 6 6 7 8 10 11 10 9 8 5 4 4 4 4 6 10 10 17 21 22 23 21 22 23 27 28 26 22 22 24 24 16
2 2 0 1 3 4 8 6 8 9 6 5 5 7 6 7 7 8 9 8 5 3 3 3 4 5 7 9 11 13 13 18 19 21 19 22 24 22 20 18 17 17 16
3 4 3 4 5 6 5 6 9 6 5 6 6 6 7 6 6 7 7 6 7 7 4 3 5 3 3 9 16 16 13 12 16 18 17 14 12 11 12 12 13 14 14
4 4 5 5 6 6 6 8 8 7 5 4 6 6 6 6 6 5 4 13 16 19 20 22 19 15 17 20 22 24 25 26 26 20 16 8 9 9 10 9 10 11 12
MSLP
1036.10 1036.30 1036.29 1036.11 1035.81 1035.57 1034.97 1034.55 1033.98 1033.61 1032.88 1032.10 1031.64 1031.40 1031.82 1032.09 1032.10 1032.17 1032.17 1031.85 1031.66 1031.22 1030.97 1030.75 1030.46 1030.04 1029.69 1029.61 1028.82 1027.72 1026.79 1026.43 1026.43 1026.14 1025.67 1025.43 1025.50 1025.70 1025.71 1025.63 1025.59 1025.49 1025.38
1036.59 1036.82 1037.04 1036.80 1036.71 1036.47 1035.97 1035.56 1035.13 1034.72 1034.28 1033.62 1033.15 1032.78 1032.83 1033.10 1033.27 1033.29 1033.14 1033.01 1032.73 1032.33 1031.85 1031.80 1031.65 1031.36 1030.95 1030.58 1029.91 1029.31 1028.51 1027.87 1027.45 1027.29 1026.79 1026.56 1026.12 1025.86 1025.80 1025.81 1025.75 1025.70 1025.51
1037.16 1037.47 1037.56 1037.61 1037.54 1037.27 1037.04 1036.66 1036.21 1035.75 1035.43 1034.73 1034.27 1033.64 1033.36 1033.83 1034.03 1034.19 1034.08 1034.01 1033.79 1033.54 1033.13 1032.80 1032.43 1032.16 1031.95 1031.76 1031.34 1030.72 1030.06 1029.51 1028.43 1028.22 1027.86 1027.22 1027.21 1026.79 1026.00 1025.88 1025.78 1025.68 1025.53
1037.71 1037.92 1038.14 1038.21 1038.22 1038.20 1038.06 1037.68 1037.31 1036.79 1036.42 1036.03 1035.48 1035.22 1035.28 1035.35 1035.89 1035.72 1035.42 1035.07 1034.79 1034.65 1034.37 1033.98 1033.52 1033.17 1032.80 1032.57 1032.22 1031.67 1031.15 1030.53 1030.09 1028.93 1028.69 1028.49 1027.80 1027.35 1026.68 1026.14 1025.85 1025.74 1025.71
1038.05 1038.38 1038.70 1038.84 1039.03 1038.86 1038.65 1038.58 1038.26 1037.89 1037.68 1037.31 1036.88 1036.69 1036.57 1036.83 1036.82 1036.52 1036.17 1035.89 1035.71 1035.58 1035.47 1035.06 1034.62 1034.23 1033.90 1033.61 1033.12 1032.38 1031.90 1031.62 1031.22 1030.83 1030.06 1028.94 1028.34 1028.20 1028.12 1026.91 1026.56 1026.13 1025.84
1038.33 1038.82 1039.12 1039.32 1039.54 1039.49 1039.27 1039.20 1039.00 1038.95 1038.88 1038.58 1038.35 1038.03 1038.04 1037.94 1037.72 1037.50 1037.16 1037.00 1036.85 1036.63 1036.52 1036.12 1035.77 1035.39 1034.94 1034.47 1033.96 1033.29 1032.82 1032.51 1032.14 1031.72 1031.40 1031.00 1030.48 1030.01 1029.75 1028.83 1027.75 1026.91 1025.97
1038.71 1039.23 1039.64 1039.82 1039.93 1040.01 1039.95 1039.68 1039.85 1039.82 1039.78 1039.52 1039.47 1039.39 1039.13 1039.09 1039.01 1038.92 1038.77 1038.43 1038.15 1037.80 1037.79 1037.35 1036.91 1036.55 1036.17 1035.66 1035.08 1034.18 1033.58 1033.28 1032.94 1032.64 1032.34 1031.97 1031.59 1031.32 1030.73 1030.08 1029.15 1028.02 1026.76
1038.91 1039.56 1040.08 1040.40 1040.46 1040.58 1040.57 1040.58 1040.51 1040.53 1040.47 1040.37 1040.23 1040.24 1040.08 1039.92 1039.90 1039.93 1039.75 1039.59 1039.40 1038.93 1038.86 1038.31 1037.83 1037.41 1036.95 1036.48 1036.03 1035.49 1034.89 1034.48 1034.02 1033.69 1033.31 1032.91 1032.61 1032.34 1031.79 1031.33 1030.50 1028.80 1027.68
1039.29 1039.95 1040.51 1040.82 1041.05 1041.15 1041.21 1041.25 1041.25 1041.26 1041.21 1041.16 1041.01 1041.00 1040.88 1040.75 1040.76 1040.64 1040.46 1040.32 1040.17 1039.49 1039.52 1039.12 1038.66 1038.18 1037.77 1037.36 1036.90 1036.42 1035.85 1035.41 1034.83 1034.74 1034.46 1034.03 1033.67 1033.16 1032.84 1032.26 1031.74 1030.91 1029.15
1039.53 1040.26 1040.79 1041.16 1041.46 1041.66 1041.81 1041.90 1041.96 1042.00 1041.97 1041.90 1041.90 1041.66 1041.65 1041.52 1041.44 1041.19 1041.16 1040.96 1040.69 1040.35 1039.97 1039.60 1039.25 1038.83 1038.42 1038.02 1037.60 1037.06 1036.41 1036.22 1035.72 1035.12 1035.12 1034.90 1034.66 1034.25 1033.74 1033.06 1032.58 1031.88 1030.98
1039.57 1040.37 1040.99 1041.47 1041.82 1042.06 1042.25 1042.44 1042.49 1042.50 1042.47 1042.45 1042.46 1042.29 1042.10 1042.03 1041.92 1041.77 1041.67 1041.46 1041.09 1040.79 1040.38 1040.03 1039.65 1039.28 1038.88 1038.47 1038.08 1037.60 1036.82 1036.66 1036.28 1035.87 1035.53 1035.38 1035.10 1034.79 1034.34 1033.91 1033.18 1032.39 1031.53
1039.70 1040.56 1041.26 1041.83 1042.26 1042.55 1042.77 1042.95 1043.01 1043.00 1042.99 1042.96 1042.80 1042.62 1042.42 1042.31 1042.31 1042.20 1041.97 1041.71 1041.61 1041.18 1040.78 1040.40 1040.01 1039.61 1039.21 1038.78 1038.37 1037.92 1037.36 1036.86 1036.47 1036.14 1035.86 1035.64 1035.16 1034.87 1034.53 1034.00 1033.38 1032.70 1031.76
1039.85 1040.80 1041.58 1042.17 1042.64 1042.99 1043.22 1043.32 1043.36 1043.37 1043.27 1043.22 1043.06 1042.85 1042.74 1042.67 1042.66 1042.41 1042.10 1041.80 1041.70 1041.44 1041.09 1040.69 1040.36 1039.94 1039.49 1039.03 1038.45 1037.80 1037.26 1036.84 1036.51 1036.22 1035.98 1035.75 1035.33 1034.80 1034.30 1033.81 1033.16 1032.59 1031.77
1040.00 1040.98 1041.83 1042.50 1043.05 1043.34 1043.53 1043.62 1043.57 1043.52 1043.46 1043.39 1043.37 1043.37 1043.36 1043.26 1043.13 1042.77 1042.37 1042.06 1041.95 1041.70 1041.37 1041.03 1040.78 1040.31 1039.87 1039.07 1038.21 1037.32 1036.93 1036.75 1036.52 1036.15 1035.98 1035.68 1035.23 1034.68 1033.94 1033.31 1032.82 1032.24 1031.93
1040.25 1041.16 1042.04 1042.70 1043.26 1043.47 1043.67 1043.69 1043.55 1043.51 1043.55 1043.59 1043.66 1043.85 1043.93 1043.80 1043.67 1043.19 1042.77 1042.55 1042.23 1041.88 1041.74 1041.30 1040.79 1040.53 1040.02 1038.75 1037.56 1037.06 1037.05 1037.17 1036.84 1036.51 1036.02 1035.43 1034.89 1034.10 1033.48 1032.78 1032.41 1032.09 1031.61
1040.36 1041.44 1042.28 1042.86 1043.31 1043.52 1043.68 1043.68 1043.68 1043.73 1043.89 1043.88 1043.79 1043.84 1043.80 1043.53 1043.13 1042.97 1042.70 1042.57 1042.13 1041.88 1041.97 1041.22 1041.01 1040.62 1039.56 1038.11 1036.74 1036.02 1036.71 1036.82 1036.92 1036.57 1036.04 1035.68 1034.77 1034.22 1033.26 1032.89 1032.21 1031.65 1030.90
1040.69 1041.84 1042.63 1043.09 1043.28 1043.44 1043.63 1043.85 1043.61 1043.56 1043.51 1043.46 1043.21 1043.10 1043.02 1042.80 1042.36 1041.97 1042.06 1041.82 1041.56 1041.61 1041.15 1040.82 1040.70 1040.18 1039.86 1037.81 1036.56 1035.82 1035.83 1036.47 1036.82 1036.39 1035.94 1035.23 1034.28 1033.78 1033.74 1032.88 1031.82 1031.38 1030.84
1041.34 1042.29 1043.00 1043.32 1043.48 1043.56 1043.64 1043.57 1043.50 1043.37 1043.32 1043.10 1042.77 1042.42 1042.19 1041.94 1041.56 1041.35 1041.29 1041.13 1040.91 1040.65 1040.30 1039.93 1039.54 1039.28 1038.60 1037.18 1036.38 1035.59 1035.68 1035.93 1035.79 1035.56 1035.28 1034.98 1034.32 1033.67 1032.56 1031.92 1031.73 1031.41 1030.95
1042.07 1042.60 1043.01 1043.63 1043.70 1043.63 1043.23 1043.37 1043.26 1043.05 1042.94 1042.53 1041.96 1041.48 1041.21 1041.00 1040.77 1040.63 1040.41 1040.14 1040.04 1039.67 1039.30 1038.76 1038.57 1038.54 1038.07 1036.99 1036.07 1035.45 1035.32 1034.97 1034.80 1034.32 1034.03 1033.87 1033.23 1032.37 1031.06 1030.68 1030.76 1030.48 1030.14
1042.29 1042.58 1042.97 1043.32 1043.38 1042.53 1042.46 1042.75 1042.63 1042.38 1041.91 1041.28 1040.72 1040.28 1040.04 1039.98 1039.82 1039.62 1039.43 1039.11 1039.23 1038.67 1038.13 1037.69 1037.68 1037.47 1036.98 1036.63 1035.78 1034.91 1034.45 1034.04 1033.73 1033.31 1032.81 1032.22 1031.62 1031.03 1030.39 1029.92 1029.81 1029.58 1029.22
1042.00 1042.21 1042.46 1042.46 1042.11 1041.76 1041.81 1041.98 1041.63 1041.20 1040.61 1040.27 1039.86 1039.42 1039.13 1039.06 1038.92 1038.70 1038.55 1038.31 1038.12 1037.82 1037.52 1037.23 1037.12 1037.13 1036.77 1036.26 1034.99 1034.20 1033.51 1033.19 1032.69 1032.19 1031.77 1031.52 1031.08 1030.32 1029.53 1029.09 1029.31 1028.77 1028.52
1041.53 1041.53 1041.66 1041.50 1041.17 1041.20 1041.34 1041.08 1040.61 1039.91 1039.72 1039.51 1039.22 1038.85 1038.51 1038.14 1037.61 1037.66 1037.58 1037.45 1037.33 1037.16 1036.91 1036.71 1036.40 1036.15 1035.83 1035.12 1034.37 1033.59 1032.62 1031.94 1031.49 1031.33 1031.11 1030.86 1030.07 1029.37 1028.87 1028.66 1028.73 1028.12 1028.11
1041.08 1041.03 1041.09 1040.84 1040.45 1040.39 1040.33 1040.08 1039.11 1039.04 1038.87 1038.75 1038.46 1038.08 1037.80 1037.51 1037.00 1036.90 1036.71 1036.58 1036.49 1036.38 1036.12 1035.96 1035.51 1035.00 1034.68 1034.35 1033.50 1032.63 1031.91 1031.31 1030.80 1030.54 1029.98 1028.89 1028.38 1028.62 1029.10 1029.10 1028.68 1028.55 1029.12
1040.78 1040.56 1040.47 1040.21 1039.65 1039.46 1039.24 1038.88 1038.48 1038.20 1038.10 1037.85 1037.52 1037.22 1036.95 1036.58 1036.29 1036.07 1035.87 1035.64 1035.55 1035.44 1035.15 1034.89 1034.50 1034.12 1033.67 1033.29 1032.92 1032.32 1031.80 1030.94 1030.32 1029.76 1029.05 1028.67 1028.34 1028.59 1028.81 1028.94 1029.12 1029.05 1028.81
1040.06 1039.89 1039.75 1039.43 1038.89 1038.56 1038.26 1037.87 1037.69 1037.53 1037.35 1037.00 1036.64 1036.29 1035.99 1035.67 1035.35 1035.10 1034.86 1034.54 1034.34 1034.34 1033.81 1033.35 1033.01 1032.77 1032.19 1031.75 1031.19 1030.57 1030.30 1029.58 1029.22 1028.52 1028.21 1028.44 1028.71 1029.00 1029.01 1028.83 1028.65 1028.44 1028.23
1039.42 1039.19 1038.91 1038.61 1038.17 1037.86 1037.45 1037.02 1036.84 1036.78 1036.61 1036.28 1035.89 1035.55 1035.12 1034.75 1034.50 1034.21 1033.70 1033.36 1032.55 1031.85 1031.12 1030.36 1029.99 1030.28 1029.71 1029.35 1028.69 1028.05 1027.57 1027.13 1026.86 1026.86 1027.31 1027.93 1028.37 1028.54 1028.43 1028.21 1027.97 1027.82 1027.67
Wind_Speed
10 12 13 14 14 15 15 16 16 17 12 9 6 5 9 9 10 10 15 15 14 14 13 9 11 11 10 10 11 6 6 4 6 3 4 3 2 2 3 3 3 4 4
9 11 13 14 15 15 15 15 16 16 13 9 6 5 5 7 8 9 12 15 15 15 13 12 10 11 8 11 12 12 5 4 6 3 2 3 5 4 3 2 2 3 3
7 9 12 11 11 15 15 15 15 16 15 13 9 7 6 6 8 10 10 13 15 15 15 14 11 11 9 9 9 11 11 5 4 9 4 3 2 3 2 3 2 3 3
7 8 9 11 11 11 12 14 14 16 15 15 12 14 10 9 8 7 8 9 14 15 15 14 13 12 9 11 9 9 8 7 7 5 8 6 3 3 4 3 4 5 5
7 8 9 10 10 10 9 9 13 15 16 15 14 10 11 8 7 7 11 12 11 14 15 14 13 12 9 10 11 10 10 7 6 6 5 5 6 7 4 5 5 3 3
8 8 7 8 9 9 9 10 11 13 13 14 15 15 15 12 10 11 9 9 8 9 14 15 13 12 11 12 10 10 11 9 8 6 7 6 4 7 4 4 7 8 4
6 7 6 6 8 10 11 9 11 13 12 12 13 12 11 10 10 9 7 9 8 9 12 12 12 10 11 11 11 10 10 10 9 10 7 6 6 7 6 6 6 5 4
7 7 7 6 7 9 10 9 10 11 11 10 12 10 11 7 7 8 7 6 7 7 10 10 10 11 11 11 10 7 8 9 8 12 10 7 7 7 7 6 8 8 4
7 7 6 6 6 7 9 9 9 9 10 11 8 9 8 9 7 8 7 6 6 8 9 9 9 10 10 10 10 7 8 8 8 8 9 8 7 7 7 7 5 6 5
8 6 5 5 5 5 5 7 8 8 7 8 7 6 6 7 6 6 7 7 7 8 8 8 8 8 9 9 8 7 7 7 7 6 8 8 7 7 7 7 7 7 5
7 6 4 4 4 4 4 5 6 6 7 7 5 5 5 5 5 5 5 5 6 7 7 7 7 8 8 8 7 7 6 7 6 6 7 7 8 6 6 7 6 7 7
7 5 5 4 3 4 4 4 4 4 4 4 4 4 4 4 5 5 5 5 5 5 6 6 7 7 7 7 7 6 6 6 7 6 6 7 8 8 7 6 8 7 9
9 6 4 3 3 2 2 3 3 3 3 3 4 4 4 5 5 5 5 5 5 5 6 6 6 7 7 7 7 6 6 5 5 5 6 7 8 8 7 7 7 7 9
9 5 4 2 1 1 2 3 3 2 3 3 4 4 4 5 4 5 5 5 5 5 5 5 5 6 7 7 8 8 6 5 5 6 7 7 8 9 9 9 8 8 8
7 5 3 2 2 2 3 3 3 3 2 4 5 5 5 4 4 4 4 4 3 4 3 5 6 5 5 6 7 6 4 3 3 5 7 8 13 19 15 9 7 9 7
8 5 3 2 3 3 3 3 3 3 1 3 5 4 4 4 4 4 4 4 5 5 4 6 5 6 5 16 17 14 2 2 3 5 6 6 13 12 18 19 20 17 10
7 6 4 4 3 3 4 5 4 3 3 3 5 5 4 5 5 5 4 5 5 3 5 5 4 6 5 16 18 18 4 2 4 5 6 7 8 14 8 15 20 18 20
5 4 3 3 4 3 3 4 3 4 4 6 6 5 5 6 5 5 5 4 4 4 5 6 6 6 6 18 18 18 3 4 6 6 7 6 9 9 12 9 6 6 6
4 4 3 3 4 5 5 4 4 4 3 7 7 6 6 6 5 6 6 6 5 5 5 7 6 5 7 17 19 16 8 7 7 7 7 7 9 12 20 8 6 8 7
3 4 4 3 3 6 2 2 5 4 7 7 7 6 6 6 7 7 7 5 5 8 7 9 6 10 9 17 20 15 8 8 7 8 9 16 13 19 20 12 5 8 9
3 4 3 5 6 4 2 6 6 8 8 8 8 7 7 7 7 8 6 7 7 8 7 9 8 7 10 11 19 18 10 8 9 9 7 6 17 21 21 21 7 10 8
3 3 3 5 5 4 4 7 9 9 7 7 8 9 8 8 8 9 9 8 7 8 8 8 8 7 8 16 16 18 19 18 10 8 7 8 21 23 20 13 18 20 14
5 4 4 7 6 6 6 9 11 7 7 7 10 10 9 10 10 10 10 8 7 7 8 7 8 7 7 8 18 20 21 19 11 8 14 24 21 18 10 11 16 16 5
5 4 5 7 10 6 8 9 10 9 7 9 10 9 9 10 9 8 8 8 7 6 7 8 8 8 8 8 8 9 10 17 14 16 14 14 17 11 8 8 6 5 6
4 4 6 7 10 8 8 9 9 7 9 10 10 10 9 10 9 9 8 8 9 9 8 9 10 10 9 11 17 15 11 11 15 17 7 4 4 4 4 5 6 6 6
5 6 7 8 9 9 10 10 7 7 9 10 9 8 8 7 7 8 9 17 23 25 26 28 20 10 22 26 26 26 25 24 24 11 7 3 4 5 6 6 6 6 9
Wind_Direction
54 43 36 32 30 26 26 23 21 18 15 16 8 20 40 34 38 35 30 29 25 24 27 24 19 16 25 13 6 339 356 13 359 320 342 338 10 340 330 312 308 321 335
51 46 37 35 31 30 24 26 27 24 21 20 12 26 29 42 43 31 33 28 28 25 28 26 23 21 19 18 16 15 343 341 23 343 307 336 333 352 349 3 341 322 318
64 46 43 30 29 29 24 30 29 30 27 24 25 32 41 40 27 25 24 26 28 25 24 24 23 22 25 20 10 13 18 348 331 345 350 334 356 309 331 344 2 1 339
76 60 47 44 35 30 31 34 34 35 32 27 37 45 49 47 27 20 23 25 27 28 22 21 22 22 20 20 13 15 16 6 9 325 7 346 313 337 314 342 330 338 319
95 72 57 52 42 34 32 25 38 39 35 38 39 42 47 40 32 25 28 26 24 27 21 20 18 20 17 13 12 12 23 17 19 11 337 343 332 38 322 320 347 325 306
104 83 62 62 48 37 28 36 36 37 31 37 39 45 44 39 34 27 24 19 18 18 19 17 17 14 12 8 3 11 20 18 20 15 18 11 352 353 344 320 322 304 299
110 92 63 46 56 42 35 37 34 38 30 33 38 34 41 38 38 28 22 19 14 15 9 9 11 10 7 5 0 8 16 13 14 20 12 7 9 356 339 310 321 316 299
108 95 77 58 49 45 40 35 37 37 31 31 37 32 33 34 34 28 22 22 14 14 5 4 7 7 7 6 1 6 10 3 11 22 15 6 11 355 359 345 330 317 304
126 111 93 70 55 48 43 38 38 39 34 33 25 29 28 30 24 23 23 19 12 11 9 5 3 4 4 4 358 2 6 3 4 22 13 6 5 353 350 342 341 331 318
134 125 103 86 67 54 45 44 43 42 33 32 20 29 23 25 19 22 19 12 5 3 2 4 3 2 0 359 356 355 7 4 359 14 12 5 355 358 343 345 337 322 311
141 132 119 97 82 59 45 38 37 36 32 23 12 16 14 14 14 19 7 3 360 359 1 359 356 358 354 352 350 343 7 354 348 350 8 2 348 346 340 337 327 321 312
138 132 124 110 83 63 45 35 27 32 18 8 3 10 11 9 12 4 352 344 348 345 349 352 353 351 349 342 340 334 330 337 340 342 353 350 345 335 332 325 317 309 307
141 135 129 110 82 58 37 23 14 9 1 360 5 3 5 4 355 349 345 345 347 342 345 355 351 343 342 331 322 307 314 316 321 333 345 332 327 324 318 309 307 311 317
145 137 131 120 90 11 339 335 327 343 336 353 360 349 347 335 322 321 336 342 337 337 340 337 332 334 328 325 309 308 303 303 342 335 332 318 318 307 302 308 307 318 316
153 145 147 215 260 288 305 305 288 322 345 350 344 311 303 296 302 315 318 313 321 317 299 319 325 320 320 317 306 277 282 296 307 320 316 320 312 315 313 306 315 306 300
174 170 182 218 244 248 279 287 291 287 190 290 279 272 290 306 297 293 300 313 309 307 324 319 308 313 311 316 322 326 280 318 303 303 300 291 312 305 318 316 308 301 298
172 182 217 242 254 255 248 263 268 307 315 293 291 292 288 291 286 278 292 291 287 287 283 288 280 288 278 307 320 315 327 270 272 274 284 295 302 313 293 293 296 302 304
161 194 232 253 266 255 256 273 274 274 281 287 281 278 271 270 272 271 270 261 255 265 279 280 278 276 286 309 312 312 315 279 265 263 262 260 279 281 288 274 261 259 263
174 207 213 221 248 253 248 227 277 246 251 263 261 257 245 258 260 263 261 259 255 267 261 276 259 257 276 297 307 306 291 286 272 270 261 257 257 275 301 313 285 287 284
212 241 245 228 234 270 236 250 274 262 271 267 263 258 247 249 257 259 265 261 227 266 271 279 271 276 294 298 300 293 279 283 280 276 275 286 298 302 305 299 282 281 281
245 234 235 249 259 272 261 279 274 265 265 265 266 263 257 255 252 262 256 261 260 268 261 269 271 262 269 276 290 287 284 284 278 277 282 286 293 294 298 300 341 309 338
294 307 293 282 270 252 245 266 265 268 256 254 261 262 258 258 271 268 267 259 255 260 264 265 271 263 259 276 281 281 280 280 283 283 275 268 282 282 301 330 315 314 341
307 294 271 284 278 256 235 261 267 264 254 253 259 260 260 257 258 259 260 262 248 246 258 260 268 272 268 262 274 282 286 284 279 269 265 280 298 318 317 300 301 326 334
265 245 263 273 282 256 261 247 266 274 261 264 265 265 262 265 250 247 250 253 248 246 248 254 263 265 264 259 256 258 268 274 276 276 271 277 276 248 271 302 300 288 284
269 261 260 267 273 277 264 261 265 255 261 267 269 270 267 267 269 260 256 250 250 243 248 244 242 246 249 246 252 249 243 241 242 247 245 198 221 243 252 253 262 272 276
274 273 269 272 280 280 279 286 277 257 261 270 273 268 269 264 261 263 270 264 275 276 274 278 273 243 247 250 261 270 278 282 284 282 266 185 216 233 250 262 265 260 271